Theta_e
296 291 288 290 293 293 292 289 288 292 296 297 296 298 301 305 306 306 307 311 314 316 318 318 319 322 321 319 318 319 317 315 317 313 309 309 308 307 305 306 306 308 306 305
293 289 294 295 295 294 293 290 289 293 294 293 293 295 299 302 305 306 308 310 313 315 315 317 318 318 319 318 319 318 317 316 316 315 308 308 306 304 303 304 304 305 303 302
291 293 297 297 294 293 292 291 290 291 291 292 293 292 298 302 303 305 307 310 312 313 314 317 318 317 318 317 318 319 317 317 316 312 306 304 304 303 302 301 300 299 299 297
293 296 296 294 293 294 291 296 293 292 288 284 289 282 290 298 300 302 305 306 309 310 314 316 318 316 316 317 319 320 318 317 316 310 307 306 305 302 301 300 296 294 296 295
292 294 294 292 294 296 293 296 293 292 289 288 287 285 287 293 297 301 303 305 308 310 311 313 317 318 317 317 318 319 317 317 316 311 309 306 304 302 300 296 292 294 294 295
294 296 296 295 297 297 297 295 293 291 288 282 286 286 286 290 298 303 304 304 307 307 308 312 316 316 316 315 316 318 316 317 316 313 310 307 306 301 298 294 293 292 292 293
291 293 297 298 293 296 294 290 283 282 281 280 290 287 289 294 296 300 302 304 305 308 306 307 312 314 314 314 316 318 317 315 316 314 311 308 306 304 301 296 296 293 292 292
287 285 293 298 294 292 291 290 283 279 278 282 289 284 289 296 297 299 299 300 301 304 307 308 311 315 315 315 317 318 318 317 316 317 313 309 307 305 303 299 296 295 294 293
286 287 295 298 298 295 291 287 290 285 284 282 284 289 292 294 296 298 297 298 298 302 304 307 309 313 315 316 317 318 319 318 314 313 309 306 307 304 300 301 298 295 294 295
292 286 294 296 299 297 293 294 286 285 280 279 282 282 285 291 295 298 298 298 300 303 304 307 309 312 314 316 317 317 318 316 311 309 306 305 303 303 301 298 295 295 296 296
293 289 288 295 292 292 291 289 288 288 284 280 277 282 291 292 294 294 295 299 299 302 305 308 310 312 314 315 315 314 313 309 304 304 304 304 302 301 299 298 296 296 296 296
295 290 283 290 294 296 293 291 289 282 282 281 279 282 292 293 293 293 295 297 299 301 306 309 310 311 312 314 310 308 305 303 306 303 302 302 299 298 296 296 295 295 296 295
295 287 281 285 289 292 290 291 291 288 284 282 278 283 293 293 293 294 294 295 299 301 303 308 309 309 309 306 305 306 305 303 301 301 302 300 300 297 296 295 296 296 295 294
298 289 286 283 285 290 287 290 290 289 281 282 282 286 291 292 292 293 294 293 296 301 304 306 306 306 306 306 306 305 304 302 301 301 300 300 300 298 297 296 294 293 294 293
295 287 287 288 290 291 291 291 290 288 288 285 287 286 291 292 293 292 293 295 300 301 303 303 304 304 305 306 305 305 302 302 301 300 300 299 298 298 296 293 294 294 294 293
294 287 287 286 290 290 288 290 290 289 288 288 288 288 292 291 291 292 293 295 296 297 298 299 301 301 302 304 304 303 301 299 300 299 298 299 297 295 294 293 293 291 292 292
290 287 285 284 285 286 283 287 290 290 290 291 286 291 292 291 292 292 294 295 294 294 294 294 294 296 298 300 301 301 299 298 297 297 296 296 294 293 293 293 292 292 293 294
287 286 283 279 281 275 289 292 292 290 290 290 290 290 292 293 292 294 294 294 294 293 292 291 291 292 294 298 298 297 297 295 294 293 293 293 292 293 293 293 293 293 294 294
293 286 282 281 280 284 288 290 290 289 288 291 290 292 293 294 294 293 293 292 291 290 290 289 289 290 290 291 291 292 291 291 292 291 291 292 293 293 293 293 293 293 293 293
291 288 286 279 278 277 287 293 293 292 284 292 293 293 293 292 284 290 291 290 289 289 289 289 290 290 290 290 291 290 289 289 289 290 291 294 294 294 293 293 293 293 292 291
283 281 281 275 277 283 291 293 293 283 286 293 295 294 293 290 290 290 290 289 289 289 289 289 289 288 289 290 291 289 290 289 292 293 293 295 295 294 294 293 293 291 290 289
288 283 279 278 276 281 293 292 288 291 291 293 294 294 293 290 289 289 289 288 288 288 288 289 288 288 289 290 290 289 289 291 292 292 293 293 294 294 293 291 290 287 284 283
286 289 286 287 287 293 293 292 294 294 294 294 294 295 294 289 288 289 287 287 287 287 287 288 288 288 288 289 290 288 288 290 290 289 288 288 288 287 286 284 283 282 282 279
290 292 288 288 291 292 293 295 295 295 294 295 296 295 293 289 289 287 287 287 286 285 286 287 287 286 285 286 286 286 286 286 285 284 284 284 283 283 283 283 283 282 280 279
290 293 290 288 292 294 295 295 294 293 293 292 291 290 289 289 288 287 286 286 285 285 286 286 285 284 283 284 285 285 284 284 284 283 283 282 281 281 282 282 282 282 282 282
293 291 288 288 294 293 293 294 294 292 291 291 290 289 289 289 287 287 286 286 286 285 285 284 283 283 283 284 283 284 284 283 282 281 281 280 279 279 280 281 280 284 285 285
Wind_Speed
2 5 6 8 6 2 1 2 1 2 3 6 5 5 10 9 6 7 8 8 10 14 10 8 9 8 7 7 7 8 8 7 7 4 4 3 4 2 2 3 5 6 5 6
5 5 9 5 3 4 5 3 2 2 3 1 4 4 2 7 10 10 13 11 13 10 7 8 8 9 10 10 9 8 9 11 9 7 3 4 4 2 3 3 4 5 6 6
6 5 1 5 4 4 3 1 2 3 2 4 6 5 2 4 2 6 7 8 9 13 12 11 11 10 9 11 12 12 11 11 9 7 5 4 4 4 3 2 3 3 6 6
5 4 5 5 5 5 1 3 0 4 3 3 1 4 5 6 8 7 10 10 13 11 10 12 15 12 10 10 9 9 10 13 9 10 7 11 8 7 4 4 4 4 6 6
8 3 4 3 7 4 4 5 2 3 3 4 1 5 7 2 9 15 14 16 15 15 14 16 17 17 14 11 11 10 9 10 10 12 10 8 5 4 4 4 8 6 5 5
7 1 3 6 3 3 4 3 6 5 3 3 3 5 6 6 16 17 11 12 15 13 11 13 10 9 11 8 9 9 11 12 9 12 10 12 12 9 8 5 5 4 3 4
1 3 4 3 3 4 7 6 4 4 4 5 1 2 10 8 10 8 10 14 16 16 13 11 14 14 12 15 14 11 12 12 8 11 11 11 11 12 13 12 9 8 5 4
6 5 3 1 4 7 4 8 7 3 2 3 2 5 7 5 3 8 9 9 9 11 13 17 18 16 16 15 14 13 14 12 12 12 12 10 9 7 8 12 10 9 8 7
5 5 2 2 3 4 5 3 5 8 3 3 4 7 10 4 5 4 4 4 8 8 9 13 13 15 14 13 17 17 15 14 11 13 9 10 12 12 11 10 9 7 7 7
8 0 1 2 2 1 5 8 4 3 4 3 4 5 6 8 6 5 6 7 7 5 8 8 9 11 12 13 14 11 13 16 12 11 9 8 9 10 9 10 10 10 8 8
5 5 4 1 5 8 2 2 6 5 5 5 1 7 8 7 5 5 6 7 7 6 7 7 8 8 10 8 9 12 11 9 8 8 7 7 7 8 9 10 10 10 11 11
7 7 5 9 1 2 4 6 6 6 5 1 3 8 5 8 7 6 8 7 4 6 7 6 5 5 6 9 4 7 6 8 9 9 10 9 7 9 10 9 11 11 11 8
8 1 2 9 4 2 3 4 5 5 4 7 6 8 3 6 7 8 7 6 2 6 6 6 6 7 5 5 4 5 6 6 7 8 8 9 10 12 12 11 10 10 8 6
9 4 10 11 8 6 4 6 5 7 4 5 7 7 8 9 8 8 7 6 5 5 6 5 3 2 6 6 6 4 5 5 6 8 10 12 13 12 11 9 7 7 7 10
8 7 5 6 6 5 6 5 9 8 6 7 7 8 10 7 7 7 5 2 5 5 3 0 2 4 4 5 6 7 7 7 9 9 8 6 5 6 5 7 7 8 8 7
1 5 4 2 3 2 5 6 7 5 4 4 5 7 7 2 1 3 4 6 8 8 8 8 7 6 2 5 6 6 7 9 11 10 9 7 6 6 6 7 6 6 4 5
8 8 5 5 2 3 6 8 8 6 5 8 7 11 6 2 3 3 6 7 8 8 7 8 8 6 7 6 1 2 4 5 4 3 4 6 7 8 8 10 11 9 7 5
8 8 3 4 3 2 8 1 4 9 6 5 3 4 7 8 4 6 5 6 8 7 8 8 7 7 9 7 7 6 6 6 7 7 8 8 10 10 10 9 8 7 3 4
2 7 4 6 5 5 4 5 8 9 9 7 7 6 7 6 6 7 6 8 6 6 4 3 5 6 8 10 8 10 10 9 10 9 10 10 11 11 10 8 6 3 1 2
6 7 6 3 5 9 9 5 4 5 5 8 9 10 10 6 5 4 5 4 6 5 5 8 8 9 11 9 9 12 11 11 11 10 10 11 11 9 7 4 2 1 2 4
4 4 6 3 4 9 9 3 5 7 11 9 13 9 9 6 4 8 9 7 6 8 9 9 11 11 8 7 10 12 12 12 9 9 8 8 6 5 4 3 1 3 4 4
9 8 5 4 3 8 8 4 10 9 1 7 8 8 7 8 8 9 8 8 8 10 10 9 11 10 8 8 12 12 11 6 6 6 6 5 4 4 3 1 3 4 4 5
3 8 9 11 10 5 6 4 6 5 7 7 9 6 11 13 6 7 8 8 8 9 8 6 10 11 9 9 8 10 5 6 6 6 6 5 5 4 4 3 5 4 4 3
3 4 4 4 5 6 5 2 2 3 4 6 5 10 11 12 11 12 10 8 8 7 8 6 10 11 10 9 9 7 6 6 6 6 6 5 6 6 5 4 3 4 4 4
5 9 7 4 3 1 5 3 4 3 7 11 9 6 12 17 13 12 10 9 7 6 6 7 9 9 9 9 10 9 7 7 7 7 7 7 5 5 5 4 4 4 5 5
6 9 7 9 10 8 5 8 7 7 6 8 16 11 9 12 13 13 10 8 8 9 7 9 9 10 9 10 10 10 9 8 8 7 5 4 4 4 5 6 7 6 10 12
Wind_Direction
11 72 225 225 192 160 330 285 264 285 246 124 221 160 197 177 180 188 211 205 211 219 218 195 183 178 173 178 179 165 156 156 146 137 133 125 147 155 152 137 134 137 133 122
34 237 235 186 182 189 211 194 275 216 344 94 141 222 160 186 204 206 197 205 213 219 193 187 187 183 186 180 182 167 173 164 171 168 143 144 154 126 97 99 102 117 124 124
156 239 115 172 173 179 219 97 73 246 38 52 102 348 205 228 252 190 228 219 209 208 201 205 196 197 192 188 186 184 178 173 172 151 113 83 75 66 86 114 110 112 122 126
229 261 234 254 185 188 26 149 136 277 108 191 154 250 259 225 230 225 213 209 217 207 203 204 192 196 198 202 191 189 180 175 173 160 157 166 165 165 192 153 124 121 124 122
247 267 229 203 232 160 237 77 75 11 98 94 268 79 266 166 238 240 224 216 216 214 200 198 205 202 190 185 193 184 176 182 176 178 178 171 162 144 128 113 125 124 121 125
237 204 185 226 197 191 103 61 44 53 51 44 298 122 280 194 218 235 227 224 218 206 204 209 201 183 197 185 176 180 177 190 178 180 181 185 173 159 141 131 136 137 141 137
305 243 271 248 95 37 74 65 339 347 13 216 349 61 239 255 248 243 237 221 214 205 186 187 187 189 185 191 192 182 183 191 178 185 191 198 177 165 168 163 161 161 167 173
164 297 204 264 157 178 182 154 154 229 193 275 313 238 257 217 275 260 254 242 203 212 194 194 201 194 196 194 196 193 190 194 190 195 203 185 180 182 175 174 166 173 171 165
151 259 281 234 96 127 207 118 163 106 13 48 268 297 303 319 338 320 310 264 217 207 199 200 200 196 193 190 198 198 193 198 191 197 180 179 179 180 178 180 179 159 153 163
206 203 216 292 82 135 215 152 83 15 160 235 268 275 242 308 314 305 314 269 271 199 201 203 198 190 191 198 201 194 197 200 193 181 187 190 187 177 170 163 165 165 159 148
131 124 258 8 205 192 152 129 63 115 131 171 210 261 219 236 250 279 265 244 239 231 218 203 202 197 195 190 192 195 193 176 165 166 176 179 180 176 168 172 165 166 162 170
196 144 192 206 207 299 165 175 140 131 212 136 161 267 244 237 259 290 290 265 260 213 218 207 205 200 193 201 165 190 158 166 180 172 161 173 154 158 158 163 171 170 170 169
181 192 56 332 339 13 202 182 132 105 72 189 144 261 326 296 274 257 267 307 257 258 196 197 182 199 196 107 167 144 175 186 156 148 165 156 170 173 180 176 177 171 160 152
103 142 169 211 214 174 195 184 174 141 127 184 217 265 290 281 292 296 278 307 311 232 226 207 207 163 122 145 168 169 188 171 158 171 173 185 188 187 183 176 158 151 148 151
132 193 181 208 203 193 212 195 167 182 198 163 247 204 254 262 264 279 283 142 60 33 56 169 186 161 161 172 185 189 171 165 166 174 193 213 179 183 164 147 149 145 152 166
297 184 174 148 133 164 229 230 188 210 175 240 238 255 224 292 311 41 72 86 81 64 51 42 37 45 71 205 211 196 184 178 171 179 186 168 163 143 139 118 121 105 91 91
148 131 124 220 14 56 331 222 210 219 205 172 195 223 158 124 89 85 110 97 84 65 48 41 30 17 19 24 338 217 143 125 142 146 137 129 120 115 124 126 120 115 118 109
139 112 97 166 40 254 241 205 209 216 231 221 263 212 165 147 99 67 39 101 83 65 44 29 13 9 9 7 42 60 79 99 104 95 93 100 106 109 112 101 86 46 45 90
89 119 106 140 190 291 280 199 176 177 260 195 196 143 135 141 96 37 34 45 71 72 65 57 35 29 27 35 43 63 55 63 75 80 87 96 106 101 93 87 88 99 99 317
67 65 115 134 154 215 228 231 152 107 271 180 149 162 161 161 101 198 111 77 74 71 55 54 43 49 50 38 59 75 72 75 77 86 89 89 83 82 89 116 130 118 219 241
60 22 143 120 207 286 244 222 139 126 237 170 164 163 164 168 170 129 124 104 91 75 70 67 62 60 50 49 72 75 79 79 85 86 84 87 98 116 116 103 194 227 248 257
155 145 177 88 71 280 175 96 167 214 296 159 150 157 142 120 114 109 103 91 84 81 74 69 76 68 57 66 83 79 73 65 65 65 67 63 50 45 50 334 310 300 297 284
200 176 178 177 206 221 204 201 237 175 159 172 137 148 137 134 136 122 116 102 91 90 82 76 90 82 61 57 65 76 54 61 65 61 49 39 32 25 8 333 309 308 299 272
256 142 153 106 217 226 228 212 228 196 165 126 132 142 149 129 131 119 112 105 97 87 90 87 88 82 71 57 56 57 46 46 56 52 36 24 17 358 354 338 318 304 296 294
191 133 162 276 274 317 248 218 159 97 90 92 72 101 126 123 119 121 115 107 104 96 85 87 88 82 71 61 52 39 34 45 50 46 35 25 18 6 346 332 301 300 275 254
195 169 165 216 188 168 196 147 135 119 113 117 118 101 94 118 119 121 110 110 110 101 91 83 80 84 72 65 55 42 37 46 48 42 24 9 359 352 345 338 328 315 302 308